• In Italy
  • List of Countries
  • For 7 days
  • Water Temperature
  • Satellite Maps
  • Weather Map
  • Weather Widgets
  • user-avatar
    Login

    Hourly Weather Zaranj

    Today, 17 October, Tuesday

    Time Temperature Precipitation Wind Pressure Humidity
    00:00 +28°C° 0 mm 1 mps 714 mmHg 12%
    01:00 +27°C° 0 mm 1 mps 714 mmHg 12%
    02:00 +27°C° 0 mm 1 mps 714 mmHg 12%
    03:00 +26°C° 0 mm 2 mps 714 mmHg 13%
    04:00 +26°C° 0 mm 2 mps 714 mmHg 13%
    05:00 +26°C° 0 mm 2 mps 714 mmHg 13%
    06:00 +26°C° 0 mm 2 mps 715 mmHg 13%
    07:00 +26°C° 0 mm 2 mps 715 mmHg 12%
    08:00 +29°C° 0 mm 2 mps 715 mmHg 11%
    09:00 +31°C° 0 mm 2 mps 715 mmHg 10%
    10:00 +33°C° 0 mm 1 mps 716 mmHg 8%
    11:00 +34°C° 0 mm 1 mps 715 mmHg 8%
    12:00 +36°C° 0 mm 1 mps 715 mmHg 7%
    13:00 +38°C° 0 mm 2 mps 715 mmHg 7%
    14:00 +38°C° 0 mm 2 mps 715 mmHg 7%
    15:00 +38°C° 0 mm 2 mps 714 mmHg 6%
    16:00 +38°C° 0 mm 3 mps 714 mmHg 6%
    17:00 +37°C° 0 mm 2 mps 714 mmHg 7%
    18:00 +35°C° 0 mm 2 mps 714 mmHg 8%
    19:00 +32°C° 0 mm 2 mps 715 mmHg 9%
    20:00 +31°C° 0 mm 2 mps 715 mmHg 9%
    21:00 +30°C° 0 mm 2 mps 715 mmHg 9%
    22:00 +30°C° 0 mm 1 mps 715 mmHg 10%
    23:00 +29°C° 0 mm 4 mps 715 mmHg 14%

    Tomorrow, 18 October, Wednesday

    Time Temperature Precipitation Wind Pressure Humidity
    00:00 +28°C° 0 mm 7 mps 716 mmHg 18%
    01:00 +27°C° 0 mm 10 mps 716 mmHg 21%
    02:00 +26°C° 0 mm 10 mps 716 mmHg 25%
    03:00 +23°C° 0 mm 10 mps 716 mmHg 29%
    04:00 +22°C° 0 mm 10 mps 717 mmHg 32%
    05:00 +21°C° 0 mm 11 mps 717 mmHg 33%
    06:00 +21°C° 0 mm 11 mps 718 mmHg 33%
    07:00 +19°C° 0 mm 11 mps 719 mmHg 34%
    08:00 +22°C° 0 mm 11 mps 719 mmHg 29%
    09:00 +24°C° 0 mm 11 mps 720 mmHg 25%
    10:00 +27°C° 0 mm 11 mps 720 mmHg 21%
    11:00 +28°C° 0 mm 11 mps 720 mmHg 20%
    12:00 +29°C° 0 mm 11 mps 719 mmHg 18%
    13:00 +31°C° 0 mm 11 mps 719 mmHg 16%
    14:00 +31°C° 0 mm 10 mps 719 mmHg 16%
    15:00 +31°C° 0 mm 10 mps 719 mmHg 16%
    16:00 +31°C° 0 mm 10 mps 718 mmHg 16%
    17:00 +29°C° 0 mm 10 mps 719 mmHg 16%
    18:00 +27°C° 0 mm 10 mps 719 mmHg 16%
    19:00 +26°C° 0 mm 9 mps 719 mmHg 16%
    20:00 +24°C° 0 mm 10 mps 720 mmHg 16%
    21:00 +24°C° 0 mm 10 mps 720 mmHg 16%
    22:00 +23°C° 0 mm 10 mps 720 mmHg 17%
    23:00 +23°C° 0 mm 10 mps 720 mmHg 17%

    Day after tomorrow, 19 October, Thursday

    Time Temperature Precipitation Wind Pressure Humidity
    00:00 +22°C° 0 mm 10 mps 720 mmHg 17%
    01:00 +22°C° 0 mm 10 mps 720 mmHg 18%
    02:00 +21°C° 0 mm 10 mps 720 mmHg 19%
    03:00 +21°C° 0 mm 10 mps 720 mmHg 20%
    04:00 +19°C° 0 mm 10 mps 720 mmHg 21%
    05:00 +19°C° 0 mm 10 mps 721 mmHg 21%
    06:00 +19°C° 0 mm 10 mps 721 mmHg 22%
    07:00 +19°C° 0 mm 10 mps 722 mmHg 22%
    08:00 +21°C° 0 mm 11 mps 722 mmHg 20%
    09:00 +23°C° 0 mm 11 mps 722 mmHg 17%
    10:00 +26°C° 0 mm 11 mps 723 mmHg 15%
    11:00 +27°C° 0 mm 11 mps 722 mmHg 14%
    12:00 +28°C° 0 mm 11 mps 722 mmHg 13%
    13:00 +29°C° 0 mm 11 mps 721 mmHg 12%
    14:00 +28°C° 0 mm 11 mps 721 mmHg 12%
    15:00 +28°C° 0 mm 11 mps 721 mmHg 12%
    16:00 +28°C° 0 mm 11 mps 720 mmHg 13%
    17:00 +27°C° 0 mm 10 mps 720 mmHg 14%
    18:00 +26°C° 0 mm 10 mps 721 mmHg 16%
    19:00 +24°C° 0 mm 10 mps 721 mmHg 17%
    20:00 +23°C° 0 mm 10 mps 721 mmHg 18%
    21:00 +22°C° 0 mm 9 mps 721 mmHg 19%
    22:00 +22°C° 0 mm 9 mps 721 mmHg 20%
    23:00 +21°C° 0 mm 9 mps 721 mmHg 21%

    20 October, Friday

    Time Temperature Precipitation Wind Pressure Humidity
    00:00 +20°C° 0 mm 8 mps 721 mmHg 22%
    01:00 +20°C° 0 mm 8 mps 720 mmHg 23%
    02:00 +18°C° 0 mm 7 mps 720 mmHg 24%
    03:00 +18°C° 0 mm 7 mps 720 mmHg 25%
    04:00 +18°C° 0 mm 7 mps 720 mmHg 25%
    05:00 +17°C° 0 mm 6 mps 720 mmHg 25%
    06:00 +17°C° 0 mm 6 mps 721 mmHg 25%
    07:00 +17°C° 0 mm 6 mps 721 mmHg 25%
    08:00 +20°C° 0 mm 6 mps 721 mmHg 22%
    09:00 +22°C° 0 mm 7 mps 721 mmHg 19%
    10:00 +24°C° 0 mm 7 mps 722 mmHg 16%
    11:00 +26°C° 0 mm 7 mps 721 mmHg 14%
    12:00 +27°C° 0 mm 6 mps 720 mmHg 12%
    13:00 +28°C° 0 mm 6 mps 720 mmHg 11%
    14:00 +28°C° 0 mm 5 mps 719 mmHg 10%
    15:00 +28°C° 0 mm 5 mps 719 mmHg 10%
    16:00 +28°C° 0 mm 5 mps 718 mmHg 10%
    17:00 +27°C° 0 mm 4 mps 719 mmHg 11%
    18:00 +26°C° 0 mm 3 mps 719 mmHg 13%
    19:00 +24°C° 0 mm 2 mps 719 mmHg 14%
    20:00 +24°C° 0 mm 2 mps 719 mmHg 15%
    21:00 +23°C° 0 mm 2 mps 719 mmHg 16%
    22:00 +22°C° 0 mm 3 mps 719 mmHg 17%
    23:00 +21°C° 0 mm 3 mps 718 mmHg 18%

    21 October, Saturday

    Time Temperature Precipitation Wind Pressure Humidity
    00:00 +21°C° 0 mm 3 mps 718 mmHg 19%
    01:00 +20°C° 0 mm 2 mps 718 mmHg 20%
    02:00 +20°C° 0 mm 2 mps 717 mmHg 20%
    03:00 +19°C° 0 mm 2 mps 717 mmHg 21%
    04:00 +19°C° 0 mm 2 mps 717 mmHg 21%
    05:00 +19°C° 0 mm 2 mps 717 mmHg 21%
    06:00 +19°C° 0 mm 2 mps 718 mmHg 21%
    07:00 +20°C° 0 mm 1 mps 718 mmHg 20%
    08:00 +22°C° 0 mm 1 mps 718 mmHg 18%
    09:00 +24°C° 0 mm 1 mps 718 mmHg 15%
    10:00 +26°C° 0 mm 1 mps 719 mmHg 13%
    11:00 +27°C° 0 mm 1 mps 718 mmHg 11%
    12:00 +28°C° 0 mm 1 mps 717 mmHg 10%
    13:00 +29°C° 0 mm 1 mps 717 mmHg 9%
    14:00 +29°C° 0 mm 1 mps 717 mmHg 9%
    15:00 +30°C° 0 mm 1 mps 716 mmHg 9%
    16:00 +30°C° 0 mm 2 mps 716 mmHg 9%
    17:00 +29°C° 0 mm 1 mps 716 mmHg 9%
    18:00 +27°C° 0 mm 1 mps 717 mmHg 10%
    19:00 +26°C° 0 mm 1 mps 717 mmHg 11%
    20:00 +25°C° 0 mm 2 mps 717 mmHg 11%
    21:00 +25°C° 0 mm 2 mps 717 mmHg 12%
    22:00 +25°C° 0 mm 3 mps 717 mmHg 13%
    23:00 +23°C° 0 mm 4 mps 717 mmHg 14%

    22 October, Sunday

    Time Temperature Precipitation Wind Pressure Humidity
    00:00 +23°C° 0 mm 4 mps 717 mmHg 15%
    01:00 +22°C° 0 mm 5 mps 717 mmHg 17%
    02:00 +22°C° 0 mm 5 mps 717 mmHg 18%
    03:00 +21°C° 0 mm 6 mps 717 mmHg 19%
    04:00 +21°C° 0 mm 6 mps 717 mmHg 20%
    05:00 +20°C° 0 mm 6 mps 717 mmHg 20%
    06:00 +20°C° 0 mm 6 mps 718 mmHg 20%
    07:00 +20°C° 0 mm 7 mps 718 mmHg 21%
    08:00 +22°C° 0 mm 7 mps 718 mmHg 19%
    09:00 +23°C° 0 mm 7 mps 719 mmHg 16%
    10:00 +26°C° 0 mm 8 mps 719 mmHg 14%
    11:00 +27°C° 0 mm 8 mps 718 mmHg 13%
    12:00 +28°C° 0 mm 8 mps 718 mmHg 12%
    13:00 +29°C° 0 mm 8 mps 717 mmHg 11%
    14:00 +29°C° 0 mm 7 mps 717 mmHg 11%
    15:00 +29°C° 0 mm 7 mps 717 mmHg 11%
    16:00 +29°C° 0 mm 7 mps 716 mmHg 11%
    17:00 +28°C° 0 mm 6 mps 717 mmHg 13%
    18:00 +26°C° 0 mm 6 mps 717 mmHg 14%
    19:00 +25°C° 0 mm 5 mps 717 mmHg 16%
    20:00 +25°C° 0 mm 5 mps 717 mmHg 17%
    21:00 +23°C° 0 mm 5 mps 717 mmHg 18%
    22:00 +22°C° 0 mm 6 mps 717 mmHg 20%
    23:00 +22°C° 0 mm 6 mps 717 mmHg 20%
    Show more